weather.gov     
National Weather Service

Regional Weather Roundup
NWS Homepage
This page is being discontinued on March 12, 2014.
The same data is available at this site. Please update your bookmarks.
Thank you, and we apologize for the inconvenience.
Please send an email to SR-SRH.Webmaster@noaa.gov with any concerns.


Current Version
Previous Version:    01  02  03  04  05  06  07  08  09  10  11  12  13  14  15  16  17  18  19  20  21  22  23  24  25  26  
[Printable]
356
ASUS42 KRAH 240310
RWRRAH
NORTH CAROLINA WEATHER ROUNDUP
NATIONAL WEATHER SERVICE RALEIGH NC
1100 PM EDT WED APR 23 2014

NOTE: "FAIR" INDICATES FEW OR NO CLOUDS BELOW 12,000 FEET WITH NO
SIGNIFICANT WEATHER AND/OR OBSTRUCTIONS TO VISIBILITY.

NCZ001-053-055-056-065-067-240400-
WESTERN NORTH CAROLINA

CITY           SKY/WX    TMP DP  RH WIND       PRES   REMARKS
ASHEVILLE      CLEAR     56  27  32 N5        30.02R
JEFFERSON      CLEAR     49  19  30 NW16      30.00F
MORGANTON      CLEAR     47  32  56 CALM      30.03R
HICKORY        CLEAR     56  26  31 N5        29.98R
RUTHERFORDTON  CLEAR     58  27  30 CALM      29.99R
MOUNT AIRY     CLEAR     53  29  40 CALM      29.99R
BOONE          CLEAR     50  22  33 CALM      30.03R
$$

NCZ021-022-025-041-071-084-088-240400-
CENTRAL NORTH CAROLINA

CITY           SKY/WX    TMP DP  RH WIND       PRES   REMARKS
CHARLOTTE      CLEAR     62  27  26 NE10      29.97R
GREENSBORO     CLEAR     57  28  33 N3        29.98R
WINSTON-SALEM  CLEAR     56  25  30 N5        30.00R
RALEIGH-DURHAM CLEAR     59  31  34 NE7       29.97R
FORT BRAGG     CLEAR     54  39  56 N3        29.95R
FAYETTEVILLE   CLEAR     59  33  37 N5        29.94R
CHAPEL HILL    CLEAR     57  30  35 N6        29.98R
BURLINGTON     CLEAR     58  25  28 N3        29.98R
LAURINBURG     CLEAR     52  42  69 CALM      29.95R
$$

NCZ011-015-027-028-043-044-047-080-103-240400-
NORTHEASTERN NORTH CAROLINA

CITY           SKY/WX    TMP DP  RH WIND       PRES   REMARKS
ROCKY MT-WILSO CLEAR     51  39  63 CALM      29.96R
GREENVILLE     CLEAR     52  39  62 CALM      29.97R
WASHINGTON     CLEAR     55  42  61 NE3       29.94R
ELIZABETH CITY CLEAR     55  39  54 N8        29.94R
MANTEO         CLEAR     56  41  57 N12G17    29.93R
CAPE HATTERAS  CLEAR     47  40  76 E3        29.94R
$$

NCZ078-087-090-091-093-098-101-240400-
SOUTHEASTERN NORTH CAROLINA

CITY           SKY/WX    TMP DP  RH WIND       PRES   REMARKS
LUMBERTON      CLEAR     49  44  83 CALM      29.94R
GOLDSBORO      CLEAR     55  40  57 CALM      29.92R
KINSTON        CLEAR     48  43  83 CALM      29.94S
KENANSVILLE    CLEAR     47  40  77 CALM      29.95R
NEW BERN       CLEAR     51  41  68 CALM      29.93R
CHERRY POINT   CLEAR     52  41  66 CALM      29.93R
BEAUFORT       CLEAR     55  45  68 CALM      29.92R
JACKSONVILLE   CLEAR     51  49  92 CALM      29.93R
WILMINGTON     CLEAR     54  46  74 CALM      29.94R
$$





U.S. Dept. of Commerce
NOAA National Weather Service
1325 East West Highway
Silver Spring, MD 20910
E-mail: w-nws.webmaster@noaa.gov
Page last modified: May 16, 2007
NATIONAL WEATHER SERVICE: for Safety, for Work, for Fun - FOR LIFE